This demonstration page uses our WeatherBlox Daily Observations layout. Learn more.

Left ArrowRight Arrow

41.55636, -103.73856

Hourly Observations for December 2, 2017

Temp ( °F °C ) Dew Point ( °F °C ) Humidity (%) Winds ( mph kmh ) Pressure ( in mb ) Visibility ( mi km ) Precip ( " mm )
12:53 am 00:53 Clear 29 -1.7 16 -8.9 58 58 E 8 13 30.09 1019 10 16 N/A
1:53 am 01:53 Clear 29 -1.7 16 -8.9 58 58 E 6 9 30.07 1018 10 16 N/A
2:53 am 02:53 Clear 30 -1.1 16 -8.9 56 56 E 9 15 30.06 1018 10 16 N/A
3:53 am 03:53 Clear 31 -0.6 17 -8.3 56 56 ENE 9 15 30.06 1018 10 16 N/A
4:53 am 04:53 Mostly Clear 29 -1.7 17 -8.3 61 61 E 7 11 30.09 1019 10 16 N/A
5:53 am 05:53 Mostly Clear 28 -2.2 18 -7.8 66 66 N N/A 30.11 1020 10 16 N/A
6:53 am 06:53 Clear 23 -5 15 -9.4 72 72 N N/A 30.13 1020 10 16 N/A
7:53 am 07:53 Sunny 31 -0.6 21 -6.1 67 67 E 7 11 30.13 1020 10 16 N/A
8:53 am 08:53 Sunny 39 3.9 23 -5 53 53 N N/A 30.12 1020 10 16 N/A
9:53 am 09:53 Sunny 44 6.7 24 -4.4 45 45 S 3 6 30.12 1020 10 16 N/A
10:53 am 10:53 Sunny 51 10.6 25 -3.9 36 36 W 3 6 30.07 1018 10 16 N/A
11:53 am 11:53 Sunny 57 13.9 26 -3.3 30 30 WSW 6 9 30.03 1017 10 16 N/A
12:53 pm 12:53 Sunny 62 16.7 25 -3.9 24 24 VRB 3 6 30.00 1016 10 16 N/A
1:53 pm 13:53 Sunny 63 17.2 22 -5.6 21 21 NW 12 19 29.98 1015 10 16 N/A
2:53 pm 14:53 Sunny 63 17.2 22 -5.6 21 21 NNW 6 9 29.97 1015 10 16 N/A
3:53 pm 15:53 Sunny 54 12.2 22 -5.6 29 29 ESE 3 6 29.99 1016 8 13 N/A
4:53 pm 16:53 Hazy 44 6.7 22 -5.6 41 41 ENE 6 9 30.04 1017 4 6 N/A
5:53 pm 17:53 Clear 44 6.7 22 -5.6 41 41 E 7 11 30.04 1017 10 16 N/A
6:53 pm 18:53 Clear 44 6.7 23 -5 43 43 ENE 9 15 30.07 1018 10 16 N/A
7:53 pm 19:53 Clear 44 6.7 23 -5 43 43 ESE 8 13 30.04 1017 10 16 N/A
8:53 pm 20:53 Clear 41 5 23 -5 49 49 E 6 9 30.02 1017 10 16 N/A
9:53 pm 21:53 Clear 39 3.9 23 -5 53 53 E 9 15 29.99 1016 10 16 N/A
10:53 pm 22:53 Clear 36 2.2 22 -5.6 57 57 E 7 11 29.95 1014 10 16 N/A
11:53 pm 23:53 Clear 36 2.2 22 -5.6 57 57 E 7 11 29.92 1013 10 16 N/A

Powered by AerisWeather